Location: Brivio
(45.7333°N, 9.4500°E)
Time: 19:06:49
(UTC+00:00)

N. Korean satellite - Pass Details

Date: 19 December 2019
Orbit: 454 x 507 km, 97.2° (Epoch: 28 January)

Event Time Altitude Azimuth Distance (km) Brightness Sun altitude
Rises 16:28:15 0° 172° (S) 2,587 10.5 -8.2°
Reaches altitude 10° 16:30:21 10° 175° (S) 1,702 9.6 -8.6°
Maximum altitude 16:34:00 68° 259° (WSW) 538 7.0 -9.1°
Drops below altitude 10° 16:37:38 10° 343° (NNW) 1,691 9.2 -9.7°
Sets 16:39:42 0° 346° (NNW) 2,569 10.1 -10.1°
